カタログに戻る

FREGAT DEB

運用中LEO
NORAD 45638·DEBRIS·🇷🇺 Russia

打ち上げ Jul 18, 2011 から Baikonur Cosmodrome

Loading…

次のパス (今後24時間)

TLE

最新Source: Space-Track

元期: Sep 14, 2026, 06:33 UTC

1 45638U 11037AE  26257.27351295  .00047592  00000-0  28272-2 0  9994
2 45638  51.3919 182.4745 1075375  59.4830 310.7802 13.25624816277199

AllMySatでFREGAT DEBをリアルタイム追跡

Download on the App Store